When you browse on this site, cookies collect data to enhance your experience and personalize the content and advertising you see.
Visit our Privacy Policy to learn more. By continuing to use the site, you agree to this use of cookies and data.
  • In United Kingdom
  • List of Countries
  • For 7 days
  • Water Temperature
  • Weather Map
  • Weather Widgets
  • user-avatar
    Login

    Hourly Weather Anjad

    Today, 2 June, Tuesday

    Time Temperature Precipitation Wind Pressure Humidity
    00:00 +32°C° 0.1 mm 2 mps 742 mmHg 49%
    01:00 +31°C° 0.1 mm 2 mps 741 mmHg 52%
    02:00 +30°C° 0.1 mm 2 mps 741 mmHg 54%
    03:00 +30°C° 0 mm 2 mps 741 mmHg 56%
    04:00 +30°C° 0 mm 1 mps 741 mmHg 57%
    05:00 +29°C° 0 mm 3 mps 741 mmHg 69%
    06:00 +30°C° 0.7 mm 3 mps 742 mmHg 64%
    07:00 +31°C° 0.7 mm 3 mps 742 mmHg 59%
    08:00 +33°C° 0.7 mm 3 mps 742 mmHg 54%
    09:00 +33°C° 0 mm 4 mps 742 mmHg 52%
    10:00 +34°C° 0 mm 5 mps 742 mmHg 50%
    11:00 +34°C° 0 mm 7 mps 742 mmHg 49%
    12:00 +34°C° 0 mm 6 mps 742 mmHg 48%
    13:00 +34°C° 0 mm 6 mps 741 mmHg 47%
    14:00 +33°C° 0 mm 5 mps 740 mmHg 45%
    15:00 +33°C° 0 mm 5 mps 740 mmHg 48%
    16:00 +33°C° 0 mm 5 mps 740 mmHg 50%
    17:00 +32°C° 0 mm 5 mps 740 mmHg 52%
    18:00 +32°C° 0 mm 4 mps 740 mmHg 53%
    19:00 +30°C° 0 mm 3 mps 740 mmHg 55%
    20:00 +30°C° 0 mm 2 mps 740 mmHg 56%
    21:00 +30°C° 0 mm 3 mps 740 mmHg 56%
    22:00 +30°C° 0 mm 4 mps 741 mmHg 55%
    23:00 +30°C° 0 mm 4 mps 741 mmHg 55%

    Tomorrow, 3 June, Wednesday

    Time Temperature Precipitation Wind Pressure Humidity
    00:00 +30°C° 0 mm 5 mps 740 mmHg 57%
    01:00 +30°C° 0 mm 5 mps 740 mmHg 60%
    02:00 +29°C° 0 mm 5 mps 739 mmHg 62%
    03:00 +28°C° 0.1 mm 5 mps 739 mmHg 66%
    04:00 +28°C° 0.1 mm 5 mps 739 mmHg 69%
    05:00 +27°C° 0.1 mm 5 mps 740 mmHg 72%
    06:00 +27°C° 0.2 mm 5 mps 740 mmHg 72%
    07:00 +27°C° 0.2 mm 5 mps 740 mmHg 71%
    08:00 +27°C° 0.2 mm 5 mps 741 mmHg 71%
    09:00 +27°C° 0.1 mm 5 mps 741 mmHg 69%
    10:00 +27°C° 0.1 mm 6 mps 740 mmHg 68%
    11:00 +27°C° 0.1 mm 6 mps 740 mmHg 67%
    12:00 +27°C° 0.6 mm 6 mps 739 mmHg 67%
    13:00 +27°C° 0.6 mm 6 mps 739 mmHg 68%
    14:00 +27°C° 0.6 mm 5 mps 738 mmHg 68%
    15:00 +26°C° 0.7 mm 6 mps 738 mmHg 69%
    16:00 +26°C° 0.7 mm 7 mps 737 mmHg 71%
    17:00 +24°C° 0.7 mm 8 mps 736 mmHg 72%
    18:00 +26°C° 0.1 mm 9 mps 737 mmHg 70%
    19:00 +26°C° 0.1 mm 9 mps 737 mmHg 68%
    20:00 +26°C° 0.1 mm 10 mps 737 mmHg 66%
    21:00 +26°C° 0.8 mm 8 mps 737 mmHg 71%
    22:00 +26°C° 0.8 mm 7 mps 737 mmHg 76%
    23:00 +25°C° 0.8 mm 5 mps 737 mmHg 81%

    Day after tomorrow, 4 June, Thursday

    Time Temperature Precipitation Wind Pressure Humidity
    00:00 +25°C° 3 mm 5 mps 737 mmHg 83%
    01:00 +25°C° 3 mm 4 mps 737 mmHg 84%
    02:00 +25°C° 3 mm 3 mps 736 mmHg 86%
    03:00 +25°C° 1.2 mm 4 mps 736 mmHg 83%
    04:00 +25°C° 1.2 mm 4 mps 736 mmHg 80%
    05:00 +26°C° 1.2 mm 4 mps 736 mmHg 78%
    06:00 +27°C° 0.1 mm 5 mps 737 mmHg 71%
    07:00 +28°C° 0.1 mm 5 mps 738 mmHg 64%
    08:00 +29°C° 0.1 mm 5 mps 739 mmHg 57%
    09:00 +32°C° 0 mm 5 mps 739 mmHg 50%
    10:00 +34°C° 0 mm 6 mps 739 mmHg 43%
    11:00 +36°C° 0 mm 6 mps 739 mmHg 36%
    12:00 +36°C° 0 mm 6 mps 739 mmHg 34%
    13:00 +38°C° 0 mm 6 mps 739 mmHg 33%
    14:00 +38°C° 0 mm 6 mps 738 mmHg 32%
    15:00 +37°C° 0 mm 5 mps 738 mmHg 32%
    16:00 +36°C° 0 mm 4 mps 738 mmHg 33%
    17:00 +36°C° 0 mm 3 mps 738 mmHg 33%
    18:00 +35°C° 0 mm 3 mps 738 mmHg 36%
    19:00 +35°C° 0 mm 2 mps 739 mmHg 39%
    20:00 +33°C° 0 mm 1 mps 740 mmHg 42%
    21:00 +32°C° 0 mm 2 mps 740 mmHg 45%
    22:00 +31°C° 0 mm 2 mps 740 mmHg 48%
    23:00 +31°C° 0 mm 2 mps 741 mmHg 52%

    5 June, Friday

    Time Temperature Precipitation Wind Pressure Humidity
    00:00 +30°C° 0 mm 2 mps 740 mmHg 55%
    01:00 +30°C° 0 mm 2 mps 740 mmHg 58%
    02:00 +30°C° 0 mm 2 mps 740 mmHg 61%
    03:00 +29°C° 0 mm 2 mps 740 mmHg 62%
    04:00 +29°C° 0 mm 1 mps 740 mmHg 64%
    05:00 +29°C° 0 mm 1 mps 740 mmHg 66%
    06:00 +30°C° 0 mm 1 mps 740 mmHg 63%
    07:00 +30°C° 0 mm 1 mps 740 mmHg 60%
    08:00 +31°C° 0 mm 1 mps 741 mmHg 57%
    09:00 +32°C° 0 mm 2 mps 741 mmHg 52%
    10:00 +35°C° 0 mm 3 mps 741 mmHg 48%
    11:00 +36°C° 0 mm 4 mps 741 mmHg 43%
    12:00 +37°C° 0 mm 4 mps 740 mmHg 40%
    13:00 +38°C° 0 mm 4 mps 740 mmHg 37%
    14:00 +40°C° 0 mm 4 mps 739 mmHg 34%
    15:00 +40°C° 0 mm 5 mps 739 mmHg 34%
    16:00 +40°C° 0 mm 5 mps 739 mmHg 34%
    17:00 +40°C° 0 mm 5 mps 738 mmHg 34%
    18:00 +39°C° 0.1 mm 5 mps 739 mmHg 39%
    19:00 +36°C° 0.1 mm 5 mps 739 mmHg 45%
    20:00 +35°C° 0.1 mm 6 mps 740 mmHg 50%
    21:00 +34°C° 0.5 mm 5 mps 740 mmHg 53%
    22:00 +34°C° 0.5 mm 4 mps 740 mmHg 56%
    23:00 +33°C° 0.5 mm 3 mps 740 mmHg 59%

    6 June, Saturday

    Time Temperature Precipitation Wind Pressure Humidity
    00:00 +32°C° 0.6 mm 2 mps 740 mmHg 60%
    01:00 +31°C° 0.6 mm 2 mps 740 mmHg 62%
    02:00 +31°C° 0.6 mm 2 mps 739 mmHg 64%
    03:00 +30°C° 0 mm 2 mps 739 mmHg 65%
    04:00 +30°C° 0 mm 2 mps 739 mmHg 66%
    05:00 +30°C° 0 mm 2 mps 739 mmHg 67%
    06:00 +31°C° 0 mm 2 mps 740 mmHg 63%
    07:00 +33°C° 0 mm 3 mps 740 mmHg 59%
    08:00 +33°C° 0 mm 3 mps 740 mmHg 56%
    09:00 +35°C° 0 mm 4 mps 740 mmHg 51%
    10:00 +36°C° 0 mm 4 mps 740 mmHg 45%
    11:00 +37°C° 0 mm 4 mps 740 mmHg 40%
    12:00 +38°C° 0 mm 4 mps 740 mmHg 38%
    13:00 +40°C° 0 mm 5 mps 739 mmHg 36%
    14:00 +40°C° 0 mm 5 mps 739 mmHg 34%
    15:00 +40°C° 0 mm 6 mps 739 mmHg 37%
    16:00 +39°C° 0 mm 6 mps 738 mmHg 39%
    17:00 +39°C° 0 mm 7 mps 738 mmHg 41%
    18:00 +38°C° 0.2 mm 6 mps 739 mmHg 45%
    19:00 +36°C° 0.2 mm 5 mps 739 mmHg 48%
    20:00 +35°C° 0.2 mm 5 mps 740 mmHg 52%
    21:00 +34°C° 0.4 mm 5 mps 740 mmHg 55%
    22:00 +34°C° 0.4 mm 5 mps 740 mmHg 58%
    23:00 +33°C° 0.4 mm 4 mps 740 mmHg 61%

    7 June, Sunday

    Time Temperature Precipitation Wind Pressure Humidity
    00:00 +33°C° 0 mm 4 mps 740 mmHg 62%
    01:00 +32°C° 0 mm 4 mps 740 mmHg 63%
    02:00 +32°C° 0 mm 4 mps 739 mmHg 64%
    03:00 +32°C° 0.1 mm 4 mps 739 mmHg 65%
    04:00 +30°C° 0.1 mm 4 mps 739 mmHg 67%
    05:00 +30°C° 0.1 mm 4 mps 739 mmHg 69%
    06:00 +32°C° 0.5 mm 4 mps 740 mmHg 65%
    07:00 +32°C° 0.5 mm 4 mps 740 mmHg 62%
    08:00 +33°C° 0.5 mm 4 mps 740 mmHg 58%
    09:00 +34°C° 0.5 mm 4 mps 740 mmHg 56%
    10:00 +34°C° 0.5 mm 5 mps 740 mmHg 53%
    11:00 +35°C° 0.5 mm 6 mps 741 mmHg 51%
    12:00 +35°C° 0.4 mm 5 mps 740 mmHg 50%
    13:00 +36°C° 0.4 mm 5 mps 740 mmHg 49%
    14:00 +36°C° 0.4 mm 5 mps 739 mmHg 47%
    15:00 +36°C° 0.1 mm 6 mps 739 mmHg 46%
    16:00 +36°C° 0.1 mm 6 mps 739 mmHg 46%
    17:00 +36°C° 0.1 mm 7 mps 738 mmHg 45%
    18:00 +35°C° 0 mm 6 mps 739 mmHg 49%
    19:00 +34°C° 0 mm 5 mps 739 mmHg 53%
    20:00 +33°C° 0 mm 4 mps 739 mmHg 57%
    21:00 +33°C° 0 mm 5 mps 739 mmHg 59%
    22:00 +33°C° 0 mm 5 mps 740 mmHg 61%
    23:00 +32°C° 0 mm 5 mps 740 mmHg 63%
    Show more